This is the latest recevied weather packets stored in our database for station/object IZ5MJO-13. If no packets are shown the sender has not sent any weather packets the latest 10 day(s).
| Time | Temp. | Humidity | Pressure | Rain* | Wind** | Luminosity | Snow |
|---|---|---|---|---|---|---|---|
| 1777777121 | 12.22° C | 45% | 1009.5 hPa | - | - | - | - |
| 1777776221 | 12.78° C | 46% | 1009.6 hPa | - | - | - | - |
| 1777775321 | 12.78° C | 44% | 1009.6 hPa | - | - | - | - |
| 1777774426 | 12.78° C | 45% | 1009.7 hPa | - | - | - | - |
| 1777773526 | 12.78° C | 40% | 1009.6 hPa | - | - | - | - |
| 1777772625 | 12.78° C | 41% | 1009.7 hPa | - | - | - | - |
| 1777771725 | 13.33° C | 41% | 1009.8 hPa | - | - | - | - |
| 1777770825 | 13.33° C | 42% | 1009.8 hPa | - | - | - | - |
| 1777769925 | 13.33° C | 39% | 1009.9 hPa | - | - | - | - |
| 1777769024 | 13.33° C | 36% | 1010 hPa | - | - | - | - |
| 1777768124 | 13.89° C | 38% | 1010.1 hPa | - | - | - | - |
| 1777767224 | 13.89° C | 37% | 1010.2 hPa | - | - | - | - |
| 1777766324 | 13.89° C | 36% | 1010.2 hPa | - | - | - | - |
| 1777765659 | 15° C | 34% | 1010.7 hPa | - | - | - | - |
| 1777765423 | 13.89° C | 36% | 1010.3 hPa | - | - | - | - |
| 1777764523 | 14.44° C | 35% | 1010.3 hPa | - | - | - | - |
| 1777763623 | 14.44° C | 35% | 1010.5 hPa | - | - | - | - |
| 1777762722 | 14.44° C | 34% | 1010.6 hPa | - | - | - | - |
| 1777761822 | 15° C | 34% | 1010.6 hPa | - | - | - | - |
| 1777760922 | 15° C | 33% | 1010.5 hPa | - | - | - | - |
| 1777760022 | 15° C | 35% | 1010.5 hPa | - | - | - | - |
| 1777759121 | 15° C | 36% | 1010.6 hPa | - | - | - | - |
| 1777758221 | 15.56° C | 34% | 1010.6 hPa | - | - | - | - |
| 1777757321 | 15.56° C | 33% | 1010.6 hPa | - | - | - | - |
| 1777756421 | 15.56° C | 34% | 1010.6 hPa | - | - | - | - |
* Rain since midnight (hover to see other rain measurements)
** Current wind speed in m/s (hover to see current wind gust speed)